Location: Brompton
(51.4000°N, 0.5333°E)
Time: 11:41:58
(UTC+00:00)

Cosmos 1898 Rocket - Pass Details

Date: 27 September 2021
Orbit: 752 x 784 km, 74.0° (Epoch: 17 October)

Event Time Altitude Azimuth Distance (km) Brightness Sun altitude
Rises 03:40:13 0° 339° (NNW) 3,263 6.8 -20.8°
Reaches altitude 10° 03:43:40 10° 2° (N) 2,339 6.3 -20.3°
Maximum altitude 03:46:45 15° 38° (NE) 1,993 6.5 -19.9°
Drops below altitude 10° 03:49:50 10° 74° (ENE) 2,342 7.2 -19.4°
Sets 03:53:16 0° 97° (E) 3,270 7.8 -18.9°
